Wind_Speed
44 41 38 31 29 30 25 23 23 23 19 17 15 14 14 13 16 20 21 21 16 12 10 9 7 5 3 1 2 4 5 6 7 5 5 6 5 4 4 4 4 4 5 5 6 8 9 9 11
46 43 40 36 32 34 31 25 26 25 21 19 18 16 14 13 13 17 17 16 15 14 10 7 7 6 3 1 2 4 3 5 6 5 7 6 5 4 5 5 5 6 7 10 11 10 11 13 15
48 46 44 37 35 39 36 29 29 29 24 23 21 19 17 15 13 15 15 15 14 14 11 9 6 6 5 2 4 6 4 4 5 5 6 7 7 7 6 5 8 9 11 13 13 12 13 13 15
49 49 47 43 42 38 36 33 33 34 28 26 24 22 20 18 14 13 13 12 14 14 11 9 8 7 7 7 4 4 4 3 3 6 7 7 7 6 6 8 8 12 13 15 16 17 20 19 17
49 50 48 46 45 43 39 38 37 37 34 30 27 25 23 23 17 14 13 10 14 15 13 9 7 7 7 7 7 5 5 5 6 8 9 7 8 9 8 10 13 15 17 17 18 18 21 22 20
46 47 49 49 50 40 46 44 43 43 38 33 32 29 26 26 23 18 16 12 12 14 13 14 13 11 8 7 6 7 9 11 11 10 11 11 10 11 12 13 16 19 17 17 18 18 17 18 17
48 46 49 55 55 52 49 46 46 46 43 40 36 33 31 27 27 22 19 17 13 13 14 15 15 13 10 8 6 7 8 9 12 13 14 15 15 15 16 17 17 17 16 14 16 18 20 21 21
47 47 52 56 59 58 55 46 42 48 47 45 40 37 35 32 31 27 24 21 18 16 15 16 17 16 12 9 9 8 8 8 10 12 15 17 18 17 19 17 16 17 16 18 21 23 25 25 26
51 48 49 56 64 61 58 52 46 47 48 47 45 42 39 38 35 32 28 26 23 20 18 18 18 16 15 13 11 11 9 10 12 12 11 10 12 15 14 17 18 18 18 23 24 26 28 28 28
56 51 57 62 64 63 60 54 49 44 48 51 51 48 43 41 39 36 34 30 27 27 24 21 21 20 19 17 15 13 16 15 15 14 14 14 15 16 17 17 20 22 24 26 24 27 29 30 33
64 57 62 65 66 70 62 59 58 52 50 54 52 51 49 46 43 42 39 36 32 31 31 27 24 24 23 23 21 18 16 17 19 19 19 21 20 21 21 23 25 28 29 29 30 31 32 32 33
70 62 65 69 65 69 68 66 64 57 59 53 50 52 50 52 48 45 45 41 38 35 34 33 29 28 28 26 25 23 23 23 24 24 26 27 28 29 29 31 32 33 35 35 33 33 32 36 37
69 70 68 71 69 66 64 62 69 60 64 68 56 55 56 55 50 49 49 46 45 40 39 38 36 33 33 30 29 29 27 25 28 29 27 30 32 35 35 34 34 35 34 36 36 36 37 38 39
71 71 73 74 73 72 67 64 67 64 68 66 59 52 54 57 54 52 53 50 49 46 44 42 40 38 36 36 34 33 32 30 29 32 32 32 34 35 37 38 39 41 42 42 43 44 42 40 46
82 79 80 80 83 78 79 72 67 71 73 69 69 62 57 56 57 56 55 55 51 48 49 47 45 43 40 40 40 38 38 36 35 35 36 36 38 38 39 42 46 49 52 53 51 49 50 52 55
69 75 87 89 94 84 83 79 72 74 76 69 72 70 65 64 61 55 54 55 58 54 51 51 50 48 45 44 43 42 43 44 44 43 45 45 43 46 48 49 50 54 56 57 56 56 56 57 59
72 69 75 77 100 106 86 74 79 79 80 79 74 74 71 71 62 60 57 57 58 57 55 53 53 52 50 47 44 44 42 42 44 46 48 49 50 51 50 53 55 57 59 62 61 60 62 65 65
74 74 73 73 77 95 97 78 84 82 82 87 85 84 76 75 66 70 61 61 58 61 58 57 55 55 54 49 47 44 43 45 48 49 51 53 55 55 56 57 59 61 62 63 62 64 66 69 71
79 75 74 80 78 87 100 93 96 92 82 88 82 84 86 82 73 68 70 62 60 60 60 62 58 59 58 54 50 51 51 48 51 52 53 57 60 60 62 61 67 65 63 64 62 71 75 76 76
82 82 78 82 88 82 91 98 106 96 92 89 90 85 88 89 83 76 76 71 65 63 62 63 59 59 58 58 56 55 56 57 56 56 61 58 62 65 66 66 68 67 67 67 71 78 81 80 82
84 84 82 81 92 92 84 96 101 101 101 96 91 86 87 90 88 82 78 75 69 66 65 65 61 62 63 63 58 59 61 60 62 62 62 64 66 71 67 70 72 68 70 76 78 80 82 86 92
89 89 86 82 89 90 95 92 95 98 104 103 96 93 85 89 92 85 80 80 77 76 70 62 59 63 65 66 63 62 64 65 63 65 67 67 71 72 70 75 74 77 82 84 82 87 87 92 94
81 87 84 85 88 94 97 99 92 99 98 108 101 98 93 94 90 86 85 81 79 73 70 71 73 72 68 66 67 69 72 72 72 71 72 73 74 81 81 82 82 85 83 82 87 88 93 93 98
83 86 86 86 89 93 96 99 94 94 95 97 104 103 101 96 99 92 89 85 84 83 76 76 75 76 74 73 74 72 75 74 77 78 77 80 84 87 86 83 82 83 87 87 88 92 94 98 102
79 85 87 85 86 73 77 96 95 88 94 92 97 108 103 100 98 96 92 90 88 86 79 77 76 76 77 67 69 71 76 80 79 78 79 81 85 88 83 85 83 88 86 88 95 95 96 99 103
78 81 86 89 87 83 90 82 85 84 90 82 92 98 110 101 99 95 96 92 92 90 86 85 82 80 78 76 77 81 82 82 82 83 83 84 85 87 82 86 88 90 94 96 98 99 100 103 106
71 73 80 81 82 84 78 83 85 92 84 81 91 93 99 105 99 96 91 90 90 92 90 86 84 80 77 75 74 77 80 84 88 89 92 90 92 90 87 85 92 96 98 100 103 105 104 108 107
58 62 66 69 72 73 74 83 92 92 84 90 95 88 84 101 102 95 92 91 89 84 84 82 84 84 83 84 83 82 80 84 87 89 89 89 87 85 92 99 99 100 103 105 103 104 105 108 114
48 47 54 59 64 72 82 84 90 87 86 87 90 84 88 88 99 98 95 87 83 82 82 75 72 67 76 76 80 83 82 85 86 90 89 92 96 97 97 98 99 102 103 101 104 108 111 114 118
39 44 49 52 59 71 78 81 87 77 77 82 81 85 88 85 86 89 88 85 84 82 82 81 78 75 85 84 87 89 86 87 90 93 93 91 97 98 97 100 99 102 103 106 110 111 116 119 123
Wind_Direction
237 234 233 227 236 239 236 250 255 249 263 277 291 295 322 332 349 353 354 352 347 344 336 337 344 347 330 258 213 182 163 174 171 170 179 190 200 209 221 236 240 238 245 281 304 310 308 311 317
231 232 228 231 229 239 239 237 244 250 260 267 271 278 299 311 333 345 349 345 339 336 336 329 330 331 337 350 264 256 261 196 184 190 204 219 233 244 231 225 234 256 282 307 313 311 317 320 318
231 231 233 225 224 236 238 234 233 241 252 253 261 267 281 298 313 331 340 346 340 337 331 333 330 320 313 281 249 270 298 191 191 212 232 245 247 235 225 264 291 302 309 315 318 317 317 321 321
231 230 232 223 228 230 234 234 228 234 244 248 249 257 265 281 290 311 326 328 336 330 329 332 330 322 311 295 279 277 284 248 237 249 251 261 257 249 258 294 306 311 311 310 323 319 327 327 324
233 230 232 223 231 227 237 237 234 231 239 242 246 247 255 266 275 286 306 310 320 317 322 321 330 328 308 283 283 278 273 279 267 270 272 256 266 287 301 303 308 311 309 306 316 309 316 311 317
233 230 233 222 222 229 231 236 233 230 233 238 241 242 245 253 265 266 284 294 301 305 306 306 315 317 321 287 269 261 268 269 267 264 265 270 271 272 291 301 307 307 306 306 313 319 318 315 317
231 231 234 225 222 224 228 232 236 231 231 233 237 238 238 242 254 257 267 275 282 289 293 300 305 312 313 303 280 267 272 268 269 272 274 280 279 283 294 299 305 312 304 302 309 315 322 323 318
235 238 231 229 229 228 230 231 238 233 234 236 233 237 237 239 242 252 254 264 270 268 276 287 295 299 304 302 290 273 259 265 270 273 272 270 275 285 290 298 308 311 314 307 310 311 309 314 312
239 239 234 236 231 227 227 225 236 238 237 236 237 235 237 238 241 246 250 256 262 260 261 270 281 287 292 293 286 274 262 263 280 282 281 276 280 284 286 293 299 306 304 304 307 307 308 310 311
239 238 238 234 230 222 222 223 227 237 239 249 242 237 238 240 240 243 246 250 255 257 257 258 270 278 281 283 283 268 275 279 287 294 289 291 288 287 290 298 301 300 298 302 303 314 312 310 309
238 237 236 237 230 225 224 227 228 231 227 246 244 242 240 240 242 242 245 248 250 254 257 260 265 267 271 274 279 277 270 277 283 287 291 288 286 290 294 292 296 297 300 301 301 307 308 316 316
237 236 237 237 236 230 232 234 230 234 229 239 247 246 243 243 245 244 244 245 246 250 254 256 256 259 264 267 271 277 273 273 274 278 279 279 281 285 286 288 291 291 292 293 298 301 303 306 308
238 238 237 237 233 229 233 231 231 235 230 235 235 244 249 247 244 246 247 246 247 246 252 256 255 259 259 261 265 269 272 277 280 278 286 285 283 283 282 287 290 292 291 291 289 291 297 300 301
229 231 233 233 230 229 230 230 226 233 226 235 234 238 247 243 242 247 246 248 251 253 253 254 255 255 261 260 261 262 266 269 274 280 283 282 281 286 287 286 290 288 285 283 287 290 289 294 303
233 232 231 236 233 233 239 235 228 235 230 237 233 232 235 240 240 245 249 248 249 252 256 255 255 259 260 263 262 264 269 271 271 273 277 279 282 282 283 285 287 288 287 287 288 288 296 295 300
239 234 234 235 234 238 240 235 233 231 230 232 229 232 239 236 237 242 245 252 250 250 252 257 258 259 262 264 268 273 275 277 275 276 279 278 276 280 284 284 286 288 289 291 291 292 293 295 296
244 242 241 237 237 237 238 234 235 232 230 231 230 234 235 238 237 242 244 245 254 255 254 255 258 259 258 262 267 272 276 280 281 281 280 282 282 282 283 283 285 287 286 288 293 294 294 295 297
245 244 240 242 243 240 234 228 228 234 232 230 232 233 234 235 237 240 242 249 248 254 255 256 254 255 257 261 269 273 281 281 279 280 282 283 282 282 282 283 285 285 285 287 290 288 289 290 292
247 243 244 242 242 241 236 231 227 233 230 227 231 233 234 238 235 246 240 238 249 252 253 256 255 258 259 260 268 271 273 277 277 279 283 286 284 283 282 284 291 287 287 290 293 288 291 290 293
249 248 247 241 241 239 237 232 228 233 231 226 228 231 233 236 237 244 243 239 237 248 249 256 259 262 259 265 267 272 273 275 278 282 280 284 285 287 287 291 290 286 286 288 287 290 291 292 296
252 250 249 239 236 237 235 236 233 230 228 225 229 232 231 233 237 244 239 236 240 242 249 252 259 260 266 266 271 274 276 277 279 277 281 282 285 285 286 288 289 285 282 288 292 292 293 293 295
254 253 250 245 238 237 236 231 231 232 227 225 227 227 230 233 238 242 239 240 243 243 244 246 255 259 261 262 268 273 275 275 278 277 281 282 287 285 282 289 286 284 285 288 292 293 292 293 294
253 251 248 245 241 237 236 233 226 231 229 226 228 227 227 231 235 238 237 238 241 244 244 249 253 256 259 262 265 269 269 272 273 277 280 282 283 283 285 290 289 286 286 291 294 293 293 292 296
250 250 248 245 243 238 237 236 224 229 229 229 231 227 227 230 231 236 235 236 240 245 249 255 256 256 257 261 263 268 270 272 273 276 279 281 281 281 284 287 290 287 291 294 295 294 295 294 296
249 246 245 243 239 239 233 237 229 233 228 229 229 228 226 228 231 232 235 237 239 243 248 252 254 256 258 262 266 268 269 276 276 278 280 280 283 286 287 288 286 289 291 292 293 293 293 295 296
251 248 246 244 239 235 229 229 225 226 226 228 227 229 226 226 230 233 236 237 239 242 245 251 250 251 257 263 265 267 271 272 275 277 280 281 284 287 288 286 290 289 291 293 294 293 292 294 297
251 247 242 240 237 236 229 223 220 223 223 223 223 227 230 226 231 230 235 237 240 242 246 248 251 252 254 254 258 264 267 270 275 276 276 278 281 283 284 286 287 290 291 291 293 295 295 295 295
247 240 238 235 232 228 223 224 222 222 218 217 218 223 227 224 228 232 236 239 242 245 248 250 252 255 260 263 265 264 266 270 273 273 278 280 281 279 283 285 289 286 291 293 293 293 293 291 293
238 235 227 222 219 217 219 220 223 220 213 214 217 221 222 224 226 230 235 237 240 243 248 250 254 258 256 258 260 262 266 269 270 271 274 278 281 283 284 286 287 288 291 290 291 290 290 292 293
227 223 216 209 212 211 213 216 222 219 217 215 215 218 220 222 226 227 232 234 236 240 244 244 245 249 254 258 261 262 265 269 270 270 273 274 279 283 283 284 285 289 288 288 288 289 290 292 295
Height
10840 10846 10850 10853 10857 10855 10858 10861 10864 10865 10866 10867 10869 10870 10870 10870 10870 10870 10867 10866 10865 10864 10863 10863 10863 10863 10863 10863 10862 10863 10863 10863 10864 10864 10865 10865 10865 10865 10866 10866 10866 10866 10866 10866 10866 10865 10864 10862 10861
10834 10839 10845 10849 10851 10851 10852 10857 10860 10862 10863 10864 10865 10867 10868 10868 10868 10869 10868 10866 10865 10864 10863 10863 10862 10863 10863 10863 10863 10863 10863 10863 10864 10864 10865 10865 10865 10865 10866 10865 10865 10865 10865 10864 10864 10863 10862 10861 10860
10827 10833 10838 10843 10845 10845 10846 10852 10855 10857 10860 10860 10861 10863 10865 10866 10865 10866 10866 10866 10865 10864 10862 10862 10861 10862 10862 10862 10862 10862 10863 10863 10863 10864 10864 10864 10864 10864 10864 10864 10864 10864 10863 10862 10861 10861 10860 10859 10857
10819 10826 10831 10837 10837 10840 10840 10846 10848 10852 10854 10856 10858 10859 10862 10863 10863 10864 10863 10864 10863 10863 10863 10862 10861 10860 10860 10861 10861 10862 10862 10863 10863 10863 10863 10863 10863 10863 10863 10863 10862 10861 10860 10859 10858 10857 10855 10855 10854
10812 10818 10826 10829 10831 10832 10835 10839 10842 10846 10848 10851 10854 10855 10858 10859 10860 10861 10861 10862 10862 10862 10862 10861 10860 10859 10859 10859 10859 10860 10860 10861 10862 10862 10862 10862 10862 10862 10862 10861 10860 10860 10858 10857 10855 10854 10853 10852 10851
10804 10811 10818 10819 10821 10825 10828 10831 10836 10837 10842 10845 10849 10851 10853 10855 10856 10857 10858 10859 10860 10860 10860 10860 10859 10858 10857 10857 10857 10858 10858 10859 10859 10859 10859 10860 10860 10860 10859 10858 10857 10855 10854 10853 10852 10852 10850 10849 10848
10796 10803 10808 10810 10812 10817 10820 10823 10827 10831 10835 10838 10842 10846 10847 10850 10852 10853 10854 10856 10857 10857 10858 10858 10857 10857 10856 10856 10855 10856 10856 10856 10856 10856 10857 10857 10857 10857 10856 10854 10853 10852 10851 10850 10850 10849 10847 10846 10845
10785 10793 10798 10801 10804 10807 10812 10817 10819 10824 10829 10832 10835 10838 10842 10844 10846 10848 10850 10851 10853 10853 10854 10855 10855 10855 10855 10854 10853 10853 10853 10853 10853 10853 10853 10853 10853 10853 10852 10851 10850 10849 10848 10847 10846 10845 10844 10843 10842
10774 10784 10788 10790 10793 10796 10803 10809 10813 10817 10822 10826 10829 10832 10835 10836 10841 10843 10845 10846 10848 10849 10850 10851 10852 10852 10852 10852 10851 10851 10850 10850 10850 10850 10850 10850 10849 10849 10848 10847 10846 10845 10844 10843 10842 10841 10840 10838 10836
10763 10772 10774 10775 10781 10787 10793 10799 10803 10811 10815 10818 10819 10823 10828 10829 10833 10837 10839 10841 10842 10844 10845 10847 10848 10849 10850 10849 10849 10848 10848 10847 10847 10847 10847 10846 10845 10845 10844 10843 10842 10841 10840 10839 10837 10836 10835 10833 10830
10749 10758 10755 10761 10769 10776 10784 10789 10797 10801 10806 10803 10809 10818 10821 10823 10823 10828 10832 10835 10837 10838 10840 10842 10844 10844 10845 10845 10845 10845 10845 10844 10844 10843 10843 10842 10841 10841 10840 10839 10838 10836 10835 10834 10832 10831 10829 10827 10824
10737 10742 10745 10748 10757 10765 10774 10780 10789 10793 10792 10794 10804 10810 10812 10815 10817 10819 10822 10826 10829 10831 10834 10837 10838 10839 10840 10840 10840 10840 10840 10840 10839 10839 10838 10837 10836 10835 10835 10834 10832 10831 10828 10827 10825 10824 10823 10820 10817
10724 10728 10733 10735 10743 10751 10759 10769 10775 10783 10782 10786 10793 10799 10802 10807 10809 10811 10814 10817 10820 10823 10826 10830 10831 10833 10833 10834 10835 10834 10834 10835 10834 10834 10833 10832 10831 10830 10828 10828 10826 10823 10821 10819 10818 10816 10815 10812 10810
10701 10712 10719 10721 10726 10735 10744 10751 10765 10769 10772 10776 10782 10785 10791 10797 10801 10803 10803 10807 10812 10816 10818 10821 10823 10825 10827 10827 10827 10828 10828 10829 10829 10828 10828 10826 10825 10823 10821 10819 10817 10815 10813 10810 10808 10807 10806 10803 10801
10684 10694 10702 10707 10709 10718 10726 10739 10753 10750 10758 10763 10768 10773 10780 10786 10790 10791 10795 10798 10804 10807 10810 10812 10815 10817 10818 10819 10819 10821 10822 10823 10823 10822 10820 10819 10818 10816 10814 10811 10809 10805 10802 10800 10797 10795 10795 10794 10791
10666 10676 10686 10688 10691 10699 10704 10734 10733 10737 10742 10749 10756 10760 10766 10772 10777 10783 10786 10790 10793 10797 10800 10804 10806 10808 10809 10809 10811 10813 10814 10815 10814 10815 10813 10811 10809 10807 10805 10802 10799 10796 10793 10789 10785 10784 10782 10781 10778
10650 10661 10665 10670 10671 10673 10687 10714 10710 10719 10726 10734 10742 10747 10754 10761 10766 10771 10774 10781 10784 10788 10792 10794 10797 10799 10799 10801 10802 10803 10804 10805 10805 10805 10803 10802 10800 10798 10795 10792 10788 10785 10782 10778 10775 10771 10768 10766 10762
10631 10640 10644 10651 10649 10651 10669 10692 10692 10696 10707 10713 10722 10730 10739 10746 10751 10758 10764 10771 10776 10779 10782 10784 10787 10788 10789 10792 10794 10795 10795 10795 10794 10793 10792 10791 10789 10786 10784 10781 10778 10774 10770 10767 10763 10758 10754 10750 10747
10608 10618 10625 10631 10628 10632 10647 10661 10673 10672 10688 10697 10707 10719 10725 10732 10738 10747 10753 10758 10765 10769 10771 10774 10776 10778 10780 10782 10785 10785 10786 10784 10784 10782 10781 10780 10777 10774 10772 10769 10766 10762 10758 10755 10750 10743 10740 10735 10730
10583 10592 10604 10605 10603 10608 10622 10637 10648 10653 10669 10680 10688 10699 10709 10715 10724 10733 10740 10745 10750 10755 10762 10766 10766 10769 10771 10773 10775 10777 10775 10774 10773 10771 10769 10767 10765 10762 10760 10757 10753 10750 10745 10740 10737 10731 10725 10718 10712
10556 10566 10574 10580 10574 10581 10598 10610 10623 10636 10640 10657 10670 10683 10693 10700 10708 10720 10727 10732 10738 10744 10750 10754 10757 10759 10761 10763 10765 10765 10764 10763 10761 10758 10756 10753 10751 10749 10746 10743 10739 10734 10730 10726 10723 10716 10710 10703 10695
10531 10537 10543 10549 10546 10561 10561 10586 10600 10614 10627 10637 10649 10664 10679 10688 10696 10707 10716 10721 10727 10731 10737 10741 10745 10748 10750 10752 10753 10753 10753 10751 10748 10744 10742 10739 10737 10734 10731 10728 10723 10719 10715 10712 10706 10701 10694 10687 10679
10510 10501 10511 10519 10521 10528 10538 10553 10589 10591 10605 10623 10638 10650 10661 10672 10681 10691 10700 10706 10713 10718 10723 10728 10732 10735 10738 10739 10740 10740 10740 10737 10733 10731 10728 10724 10720 10718 10716 10713 10709 10703 10698 10695 10690 10683 10676 10668 10661
10472 10475 10484 10490 10495 10503 10526 10531 10562 10576 10598 10604 10617 10632 10641 10655 10662 10675 10685 10692 10701 10706 10711 10715 10719 10722 10725 10727 10728 10728 10725 10721 10717 10715 10712 10710 10704 10701 10702 10699 10693 10686 10680 10675 10669 10663 10656 10649 10641
10444 10446 10451 10459 10465 10486 10497 10510 10549 10558 10570 10584 10598 10609 10625 10637 10647 10660 10670 10679 10687 10693 10697 10702 10707 10710 10714 10716 10717 10715 10709 10702 10702 10700 10697 10694 10688 10686 10686 10681 10675 10670 10663 10656 10650 10643 10637 10629 10620
10419 10421 10427 10435 10447 10461 10465 10493 10529 10531 10542 10563 10578 10589 10606 10618 10632 10644 10653 10665 10672 10678 10684 10687 10693 10698 10701 10704 10705 10698 10695 10687 10687 10684 10681 10677 10673 10670 10669 10663 10655 10652 10646 10639 10632 10624 10615 10606 10597
10388 10398 10401 10413 10426 10435 10461 10485 10496 10502 10524 10546 10563 10575 10590 10608 10619 10630 10638 10649 10657 10663 10668 10673 10679 10685 10688 10688 10690 10684 10680 10676 10671 10665 10664 10664 10657 10656 10650 10642 10636 10632 10627 10619 10612 10603 10592 10583 10572
10364 10369 10378 10394 10411 10427 10445 10456 10472 10486 10510 10527 10542 10558 10573 10590 10604 10617 10626 10634 10643 10648 10652 10661 10665 10672 10672 10671 10671 10669 10665 10662 10655 10647 10649 10646 10644 10639 10631 10625 10620 10613 10605 10596 10588 10580 10570 10561 10551
10347 10356 10364 10377 10395 10409 10419 10437 10453 10476 10494 10514 10530 10545 10559 10572 10588 10601 10613 10624 10632 10637 10642 10650 10654 10657 10655 10655 10655 10653 10651 10644 10643 10635 10633 10628 10623 10620 10615 10607 10599 10592 10584 10575 10567 10558 10548 10537 10527
10336 10342 10353 10367 10385 10400 10410 10427 10441 10472 10490 10502 10516 10530 10545 10560 10574 10588 10600 10611 10619 10623 10631 10635 10637 10643 10636 10638 10635 10635 10633 10633 10627 10621 10615 10614 10610 10603 10596 10588 10580 10571 10563 10554 10545 10535 10524 10513 10500